Weather History for KBIX - April, 2015

Change the Weather History Date:

Saturday, April 18, 2015

  Actual Average Record
Temperature  
Mean Temperature 72 °F -  
Max Temperature 75 °F 76 °F 86 °F (1967)
Min Temperature 68 °F 60 °F 42 °F (2001)
Cooling Degree Days 6    
Growing Degree Days 22 (Base 50)    
Moisture  
Dew Point 71 °F    
Average Humidity 98    
Maximum Humidity 100    
Minimum Humidity 87    
Precipitation  
Precipitation 0.62 in - - ()
Sea Level Pressure  
Sea Level Pressure 29.91 in    
Wind  
Wind Speed 5 mph (East)    
Max Wind Speed 21 mph    
Max Gust Speed 26 mph    
Visibility 8 miles    
Events Fog , Rain , Thunderstorm    
Averages and records for this station are not official NWS values.
T = Trace of Precipitation, MM = Missing Value Source: NWS Daily Summary

Daily Weather History Graph

Daily Weather History Graph

Search for Another Location

Airport or City:

Trip Planner

Search our weather history database for the weather conditions in past years. The results will help you decide how hot, cold, wet, or windy it might be!

Date:

Astronomy

Apr. 18, 2015 Rise Set
Actual Time 6:25 AM CDT 7:25 PM CDT
Civil Twilight 6:00 AM CDT 7:49 PM CDT
Nautical Twilight 5:31 AM CDT 8:19 PM CDT
Astronomical Twilight 5:01 AM CDT 8:49 PM CDT
Moon 6:21 AM CDT (4/18) 7:33 PM CDT (4/18)
Length of Visible Light 13h 49m
Length of Day
12h 59m
Waning Crescent, 0% of the Moon is Illuminated
Apr 18
Waning Crescent
Apr 18
New
Apr 25
First Quarter
May 3
Full
May 11
Last Quarter

Hourly Weather History & Observations

Time (CDT) Temp. Dew Point Humidity Pressure Visibility Wind Dir Wind Speed Gust Speed Precip Events Conditions
12:03 AM 73.4 °F 73.4 °F 100% 29.94 in 10.0 mi NNW 3.5 mph - N/A   Mostly Cloudy
12:08 AM 73.4 °F 73.4 °F 100% 29.94 in 10.0 mi NNW 3.5 mph - N/A   Mostly Cloudy
12:23 AM 73.4 °F 73.4 °F 100% 29.94 in 10.0 mi NW 2.3 mph - N/A   Mostly Cloudy
12:33 AM 71.6 °F 71.6 °F 100% 29.94 in 10.0 mi North 3.5 mph - N/A   Scattered Clouds
12:58 AM 71.2 °F 71.2 °F 100% 29.94 in 10.0 mi Calm Calm - N/A   Clear
1:58 AM 70.2 °F 70.2 °F 100% 29.90 in 10.0 mi NE 6.9 mph - N/A   Partly Cloudy
2:33 AM 69.8 °F 69.8 °F 100% 29.91 in 10.0 mi Calm Calm - N/A   Mostly Cloudy
2:38 AM 69.8 °F 69.8 °F 100% 29.91 in 9.0 mi North 1.2 mph - N/A   Mostly Cloudy
2:53 AM 69.8 °F 69.8 °F 100% 29.91 in 7.0 mi North 2.3 mph - N/A   Mostly Cloudy
2:58 AM 69.8 °F 69.8 °F 100% 29.92 in 5.0 mi North 2.3 mph - N/A   Mostly Cloudy
3:03 AM 69.8 °F 69.8 °F 100% 29.91 in 3.0 mi North 1.2 mph - N/A   Overcast
3:08 AM 69.8 °F 69.8 °F 100% 29.91 in 1.8 mi NNE 2.3 mph - N/A   Overcast
3:13 AM 69.8 °F 69.8 °F 100% 29.90 in 1.2 mi North 3.5 mph - N/A   Overcast
3:18 AM 69.8 °F 69.8 °F 100% 29.90 in 0.8 mi North 5.8 mph - N/A   Mist
3:23 AM 69.8 °F 69.8 °F 100% 29.90 in 0.8 mi North 5.8 mph - N/A   Mist
3:28 AM 69.8 °F 69.8 °F 100% 29.90 in 0.5 mi North 5.8 mph - N/A Fog Fog
3:58 AM 69.6 °F 69.6 °F 100% 29.91 in 0.5 mi NE 3.5 mph - N/A Fog Fog
4:18 AM 69.8 °F 69.8 °F 100% 29.91 in 0.8 mi NE 4.6 mph - N/A   Mist
4:23 AM 69.8 °F 69.8 °F 100% 29.90 in 1.5 mi NE 4.6 mph - N/A   Overcast
4:28 AM 69.8 °F 69.8 °F 100% 29.90 in 5.0 mi NNE 5.8 mph - N/A   Overcast
4:33 AM 69.8 °F 69.8 °F 100% 29.91 in 7.0 mi NNE 4.6 mph - N/A   Overcast
4:38 AM 69.8 °F 69.8 °F 100% 29.91 in 8.0 mi NNE 4.6 mph - N/A   Overcast
4:42 AM 69.8 °F 69.8 °F 100% 29.91 in 8.0 mi North 3.5 mph - N/A Rain Light Rain
4:52 AM 69.8 °F 69.8 °F 100% 29.92 in 6.0 mi NNE 4.6 mph - N/A Rain Light Rain
4:58 AM 69.3 °F 69.3 °F 100% 29.93 in 6.0 mi NE 4.6 mph - 0.02 in Rain Light Rain
5:03 AM 69.8 °F 69.8 °F 100% 29.92 in 7.0 mi NNE 3.5 mph - N/A Rain , Thunderstorm Light Rain
5:08 AM 69.8 °F 69.8 °F 100% 29.92 in 6.0 mi NE 3.5 mph - N/A Rain , Thunderstorm Light Rain
5:43 AM 68.0 °F 68.0 °F 100% 29.92 in 7.0 mi NE 3.5 mph - N/A Rain Light Rain
5:53 AM 68.0 °F 68.0 °F 100% 29.92 in 7.0 mi NE 6.9 mph - N/A Rain Light Rain
5:58 AM 68.5 °F 68.5 °F 100% 29.93 in 6.0 mi NNE 5.8 mph - 0.11 in Rain Rain
6:08 AM 68.0 °F 68.0 °F 100% 29.92 in 7.0 mi NE 4.6 mph - N/A Rain Rain
6:13 AM 68.0 °F 68.0 °F 100% 29.93 in 8.0 mi NE 3.5 mph - N/A Rain Light Rain
6:18 AM 68.0 °F 68.0 °F 100% 29.93 in 9.0 mi ENE 4.6 mph - N/A Rain Light Rain
6:28 AM 68.0 °F 68.0 °F 100% 29.92 in 8.0 mi ENE 5.8 mph - N/A Rain Rain
6:33 AM 68.0 °F 68.0 °F 100% 29.92 in 6.0 mi ENE 6.9 mph - N/A Rain Rain
6:38 AM 68.0 °F 68.0 °F 100% 29.92 in 5.0 mi ENE 5.8 mph - N/A Rain Rain
6:53 AM 68.0 °F 68.0 °F 100% 29.91 in 10.0 mi NNE 6.9 mph - N/A Rain Light Rain
6:56 AM 68.0 °F 68.0 °F 100% 29.92 in 10.0 mi NE 4.6 mph - N/A   Overcast
6:58 AM 68.0 °F 68.0 °F 100% 29.93 in 10.0 mi NNE 4.6 mph - 0.11 in   Overcast
7:01 AM 68.0 °F 68.0 °F 100% 29.92 in 10.0 mi NNE 6.9 mph - N/A Rain Light Rain
7:26 AM 68.0 °F 68.0 °F 100% 29.93 in 9.0 mi North 4.6 mph - N/A Rain Light Rain
7:39 AM 68.0 °F 68.0 °F 100% 29.93 in 10.0 mi NNE 5.8 mph - N/A   Mostly Cloudy
7:49 AM 68.0 °F 68.0 °F 100% 29.94 in 10.0 mi NNE 4.6 mph - N/A   Overcast
7:58 AM 68.2 °F 68.2 °F 100% 29.94 in 10.0 mi NNE 6.9 mph - 0.04 in   Overcast
8:44 AM 68.0 °F 68.0 °F 100% 29.96 in 10.0 mi Calm Calm - N/A Rain Light Rain
8:58 AM 68.5 °F 68.5 °F 100% 29.98 in 8.0 mi East 3.5 mph - 0.01 in Rain Light Rain
9:18 AM 68.0 °F 68.0 °F 100% 29.98 in 8.0 mi East 2.3 mph - N/A Rain Light Rain
9:28 AM 69.8 °F 69.8 °F 100% 29.98 in 7.0 mi ESE 4.6 mph - N/A Rain Light Rain
9:48 AM 69.8 °F 69.8 °F 100% 29.98 in 6.0 mi ESE 2.3 mph - N/A Rain Light Rain
9:58 AM 69.4 °F 69.4 °F 100% 30.00 in 9.0 mi Variable 1.2 mph - 0.08 in Rain Light Rain
10:08 AM 69.8 °F 69.8 °F 100% 30.00 in 10.0 mi South 4.6 mph - N/A Rain Light Rain
10:48 AM 71.6 °F 71.6 °F 100% 29.98 in 10.0 mi SE 4.6 mph - N/A Rain Light Rain
10:58 AM 71.4 °F 71.4 °F 100% 29.98 in 10.0 mi SSE 5.8 mph - 0.06 in Rain Light Rain
11:04 AM 71.6 °F 71.6 °F 100% 29.96 in 10.0 mi SE 5.8 mph - N/A   Clear
11:44 AM 71.6 °F 71.6 °F 100% 29.94 in 10.0 mi SSE 8.1 mph - N/A   Mostly Cloudy
11:54 AM 71.6 °F 71.6 °F 100% 29.93 in 10.0 mi SE 8.1 mph - N/A   Mostly Cloudy
11:58 AM 72.5 °F 72.5 °F 100% 29.94 in 10.0 mi SSE 8.1 mph - 0.00 in   Mostly Cloudy
12:43 PM 73.4 °F 73.4 °F 100% 29.90 in 10.0 mi SSE 8.1 mph - N/A   Mostly Cloudy
12:53 PM 73.4 °F 73.4 °F 100% 29.90 in 10.0 mi SSE 10.4 mph 18.4 mph N/A   Mostly Cloudy
12:58 PM 73.9 °F 73.8 °F 99% 29.91 in 10.0 mi SSE 12.7 mph 18.4 mph 0.01 in   Scattered Clouds
1:58 PM 74.8 °F 72.1 °F 91% 29.88 in 10.0 mi SSE 9.2 mph - N/A   Mostly Cloudy
2:18 PM 73.4 °F 71.6 °F 94% 29.85 in 10.0 mi SSE 11.5 mph - N/A   Mostly Cloudy
2:48 PM 73.4 °F 71.6 °F 94% 29.85 in 10.0 mi SSE 10.4 mph - N/A   Mostly Cloudy
2:53 PM 75.2 °F 71.6 °F 89% 29.85 in 10.0 mi Variable 6.9 mph - N/A   Mostly Cloudy
2:58 PM 74.8 °F 71.8 °F 90% 29.85 in 10.0 mi SE 11.5 mph - N/A   Mostly Cloudy
3:03 PM 75.2 °F 71.6 °F 89% 29.85 in 10.0 mi SSE 10.4 mph - N/A   Mostly Cloudy
3:58 PM 75.7 °F 71.6 °F 87% 29.87 in 10.0 mi South 10.4 mph 16.1 mph N/A   Mostly Cloudy
4:58 PM 75.4 °F 72.7 °F 91% 29.87 in 10.0 mi South 8.1 mph - N/A   Mostly Cloudy
5:03 PM 75.2 °F 73.4 °F 94% 29.87 in 10.0 mi South 8.1 mph - N/A   Scattered Clouds
5:08 PM 75.2 °F 73.4 °F 94% 29.86 in 10.0 mi South 8.1 mph - N/A   Mostly Cloudy
5:33 PM 75.2 °F 73.4 °F 94% 29.87 in 10.0 mi SSW 9.2 mph - N/A   Overcast
5:58 PM 74.1 °F 72.9 °F 96% 29.88 in 10.0 mi SW 4.6 mph - N/A   Mostly Cloudy
6:17 PM 75.2 °F 73.4 °F 94% 29.86 in 10.0 mi SSW 4.6 mph - N/A Rain Light Rain
6:58 PM 73.8 °F 72.9 °F 97% 29.87 in 10.0 mi South 6.9 mph - 0.05 in Rain Light Rain
7:58 PM 72.9 °F 72.0 °F 97% 29.88 in 10.0 mi SSW 11.5 mph - 0.07 in Rain Light Rain
8:28 PM 73.4 °F 71.6 °F 94% 29.87 in 10.0 mi SSW 13.8 mph - N/A Rain Light Rain
8:38 PM 73.4 °F 73.4 °F 100% 29.87 in 10.0 mi SSW 12.7 mph - N/A Rain Light Rain
8:43 PM 73.4 °F 73.4 °F 100% 29.87 in 10.0 mi SSW 19.6 mph 24.2 mph N/A Rain Light Rain
8:48 PM 73.4 °F 73.4 °F 100% 29.88 in 10.0 mi SSW 17.3 mph 24.2 mph N/A Rain Light Rain
8:58 PM 72.7 °F 71.8 °F 97% 29.90 in 10.0 mi SW 19.6 mph 26.5 mph 0.04 in Rain Light Rain
9:03 PM 71.6 °F 71.6 °F 100% 29.89 in 10.0 mi SW 20.7 mph 26.5 mph N/A Rain Light Rain
9:19 PM 71.6 °F 71.6 °F 100% 29.90 in 10.0 mi SW 13.8 mph - N/A   Scattered Clouds
9:20 PM 71.6 °F 71.6 °F 100% 29.90 in 10.0 mi SW 15.0 mph - N/A Rain Light Rain
9:58 PM 71.6 °F 71.6 °F 100% 29.88 in 10.0 mi SSW 13.8 mph - 0.02 in Rain Light Rain
10:08 PM 71.6 °F 71.6 °F 100% 29.86 in 10.0 mi SSW 15.0 mph - N/A   Scattered Clouds
10:16 PM 71.6 °F 71.6 °F 100% 29.85 in 10.0 mi SSW 17.3 mph 24.2 mph N/A Rain Light Rain
10:31 PM 71.6 °F 71.6 °F 100% 29.82 in 10.0 mi South 12.7 mph - N/A   Partly Cloudy
10:58 PM 72.5 °F 71.4 °F 96% 29.82 in 10.0 mi South 12.7 mph - 0.00 in   Clear
11:58 PM 73.0 °F 69.6 °F 89% 29.80 in 10.0 mi South 10.4 mph - N/A   Scattered Clouds